Printer-friendly version

IAU Minor Planet Center

Minor Planet Center

MPEC 2006-O30 : 2006 OA5

The following Minor Planet Electronic Circular may be linked-to from your own Web pages, but must not otherwise be redistributed electronically.


Read MPEC 2006-O29 Read MPEC 2006-O31


M.P.E.C. 2006-O30                                Issued 2006 July 23, 03:54 UT

     The Minor Planet Electronic Circulars contain information on unusual
         minor planets and routine data on comets.  They are published
   on behalf of Commission 20 of the International Astronomical Union by the
          Minor Planet Center, Smithsonian Astrophysical Observatory,
                          Cambridge, MA 02138, U.S.A.

                  Supported in part by the Brinson Foundation
                  Supported in part by the TABASGO Foundation
             Prepared using the Tamkin Foundation Computer Network

                              MPC@CFA.HARVARD.EDU
          URL http://cfa-www.harvard.edu/iau/mpc.html  ISSN 1523-6714

                                   2006 OA5

Observations:
     K06O05A* C2006 07 21.27728 21 37 37.70 -18 09 31.7          18.5   EO030704
     K06O05A  C2006 07 21.28826 21 37 37.17 -18 09 16.7          19.1   EO030704
     K06O05A  C2006 07 21.29921 21 37 36.64 -18 09 02.4          18.7   EO030704
     K06O05A  C2006 07 21.31019 21 37 36.21 -18 08 47.3          19.1   EO030704
     K06O05A  C2006 07 21.32126 21 37 35.60 -18 08 31.3          18.7   EO030704
     K06O05A  C2006 07 22.01466 21 37 08.56 -17 52 12.5          18.9 R EO030J87
     K06O05A  C2006 07 22.02022 21 37 08.27 -17 52 05.1          18.8 R EO030J87
     K06O05A  C2006 07 22.02579 21 37 08.02 -17 51 57.2          19.2 R EO030J87
     K06O05A  C2006 07 22.20194 21 37 00.15 -17 47 19.4          18.6 R EO030I77
     K06O05A  C2006 07 22.20710 21 36 59.86 -17 47 12.1          18.8 R EO030I77
     K06O05A  C2006 07 22.21226 21 36 59.57 -17 47 04.7          18.6 R EO030I77
     K06O05A  C2006 07 22.32751 21 36 55.07 -17 44 41.2          18.8 R EO030734
     K06O05A  C2006 07 22.32897 21 36 54.99 -17 44 39.1          18.7 R EO030734
     K06O05A  C2006 07 22.33044 21 36 54.92 -17 44 37.0          18.8 R EO030734
     K06O05A  C2006 07 22.33190 21 36 54.85 -17 44 34.9          18.7 R EO030734
     K06O05A  C2006 07 23.02317 21 36 24.96 -17 27 37.7                 EO030J95
     K06O05A  C2006 07 23.02740 21 36 24.73 -17 27 31.0                 EO030J95
     K06O05A  C2006 07 23.03202 21 36 24.53 -17 27 24.1          18.6 R EO030J95

Observer details:
704 Lincoln Laboratory ETS, New Mexico.  Observers M. Bezpalko, L. Manguso,
    D. Torres, R. Kracke, H. Love, G. Spitz, J. Kistler.  Measurers J. Stuart,
    J. Kommers.  1.0-m f/2.15 reflector + CCD.
734 Farpoint Observatory.  Observer G. Hug.  0.7-m reflector + CCD.
I77 CEAMIG-REA Observatory, Belo Horizonte.  Observers C. Jacques, E. Pimentel.
    Measurer C. Jacques.  0.30-m f/3.0 Schmidt-Cassegrain + CCD.
J87 La Canada.  Observer J. Lacruz.  0.30-m Schmidt-Cassegrain + CCD.
J95 Great Shefford.  Observer P. Birtwhistle.  0.40-m f/6.0 Schmidt-Cassegrain
    + CCD.

Orbital elements:
2006 OA5                                                 Earth MOID = 0.1236 AU
Epoch 2006 Sept. 22.0 TT = JDT 2454000.5                MPC
M 343.35526              (2000.0)            P               Q
n   0.52382140     Peri.   86.99155     +0.79927695     -0.58274337
a   1.5241015      Node   308.60068     +0.44915943     +0.74161965
e   0.3762881      Incl.   10.83094     +0.39926453     +0.33228068
P   1.88           H   20.0           G   0.15           U   8
Residuals in seconds of arc
060721 704  0.2+  0.3+    060722 J87  0.2-  0.1-    060722 734  0.0   0.0
060721 704  0.2-  0.3+    060722 J87  0.2+  0.1-    060722 734  0.1+  0.0
060721 704  0.5-  0.5-    060722 I77  0.3+  0.2+    060722 734  0.1+  0.0
060721 704  0.7+  0.5-    060722 I77  0.1+  0.0     060723 J95  0.2-  0.3-
060721 704  0.5-  0.3+    060722 I77  0.2-  0.1-    060723 J95  0.3-  0.1+
060722 J87  0.0   0.4+    060722 734  0.1+  0.0     060723 J95  0.4+  0.1+

Ephemeris:
2006 OA5                 a,e,i = 1.52, 0.38, 11                  q = 0.9506
Date    TT    R. A. (2000) Decl.     Delta      r     Elong.  Phase     V
2006 07 14    21 40.39   -20 35.2    0.388    1.366   150.2    21.7    19.7
2006 07 24    21 35.64   -17 02.3    0.308    1.310   160.1    15.3    18.9
2006 08 03    21 23.34   -11 34.2    0.242    1.253   170.2     7.9    18.0
2006 08 13    21 02.04   -02 59.7    0.189    1.198   166.4    11.5    17.5
2006 08 23    20 30.45   +09 43.8    0.153    1.144   147.9    28.0    17.5
2006 09 02    19 48.22   +25 52.4    0.136    1.094   125.5    48.7    17.7
2006 09 12    18 54.28   +42 00.6    0.135    1.048   104.3    68.5    18.2
2006 09 22    17 44.09   +54 30.8    0.146    1.009    87.9    83.7    18.8
2006 10 02    16 13.99   +61 44.5    0.164    0.979    77.6    93.0    19.3
2006 10 12    14 36.26   +63 20.5    0.184    0.959    72.5    96.9    19.7
2006 10 22    13 19.25   +60 33.3    0.206    0.951    71.6    96.5    19.9
2006 11 01    12 30.77   +55 38.1    0.226    0.955    73.9    93.0    20.0
2006 11 11    12 01.91   +50 04.3    0.244    0.971    78.3    87.4    19.9
2006 11 21    11 43.38   +44 37.4    0.257    0.997    84.7    80.5    19.9
2006 12 01    11 28.29   +39 35.6    0.266    1.033    92.7    72.4    19.7
2006 12 11    11 12.12   +35 01.5    0.270    1.077   102.7    63.1    19.6
2006 12 21    10 51.54   +30 52.5    0.273    1.126   114.8    52.5    19.4
2006 12 31    10 24.74   +26 59.6    0.277    1.178   129.2    40.3    19.2
2007 01 10    09 52.86   +23 15.0    0.290    1.234   145.6    26.8    19.0
2007 01 20    09 19.90   +19 43.9    0.317    1.290   162.7    13.1    18.8
2007 01 30    08 51.25   +16 40.9    0.361    1.346   178.6     1.0    18.6
2007 02 09    08 30.46   +14 17.9    0.425    1.402   165.9     9.9    19.5
2007 02 19    08 18.07   +12 34.6    0.506    1.458   153.2    17.8    20.3
2007 03 01    08 13.10   +11 21.3    0.601    1.511   142.2    23.7    20.9
2007 03 11    08 13.93   +10 26.7    0.709    1.563   132.7    27.8    21.5
2007 03 21    08 19.09   +09 41.9    0.826    1.613   124.3    30.7    21.9

Gareth V. Williams           (C) Copyright 2006 MPC           M.P.E.C. 2006-O30

Read MPEC 2006-O29 Read MPEC 2006-O31


Our Web policy. Index to the CBAT/MPC/ICQ pages.


Valid HTML 4.01!